Flag for Germany

Past Weather in Waltrop, North Rhine-Westphalia, Germany — Yesterday and Last 2 Weeks

Now
63 °F

Sunny.


Feels Like: 63 °F
Forecast: 69 / 50 °F
Wind: 2 mph from North

Location: Dortmund / Wickede

Current Time: Jul 11, 2020 at 9:32:31 pm

Latest Report: Jul 11, 2020 at 8:20 pm


Visibility: 10 mi

Pressure: 30.27 "Hg

Humidity: 56%

Dew Point: 46 °F

Location of WaltropLocation

Past Weather in Waltrop — Graph

°F

Waltrop Temperature Yesterday

Maximum temperature yesterday: 64 °F (at 6:50 am)
Minimum temperature yesterday: 54 °F (at 11:50 pm)
Average temperature yesterday: 61 °F

High & Low Weather Summary for the Past Weeks

 TemperatureHumidityPressure
High82 °F (Jun 27, 1:20 pm)100% (Jul 1, 7:20 am)30.27 "Hg (Jul 1, 7:20 am)
Low45 °F (Jul 11, 5:20 am)38% (Jun 29, 5:20 pm)29.71 "Hg (Jul 1, 2:20 pm)
Average63 °F74%29.93 "Hg
* Reported Jun 26 8:20 pm — Jul 11 8:20 pm, Waltrop. Weather by CustomWeather, © 2020

Note: Actual official high and low records may vary slightly from our data, if they occured in-between our weather recording intervals... More about our weather records

Waltrop Weather History for the Previous 24 Hours

Scroll right to see more
 ConditionsComfort  
Time TempWeatherWind HumidityBarometerVisibility
8:20 pm
Sat, Jul 11
63 °FSunny.2 mph56%30.27 "Hg10 mi
7:50 pm63 °FPassing clouds.5 mph56%30.27 "HgN/A
7:20 pm61 °FPassing clouds.6 mph63%30.27 "HgN/A
6:50 pm63 °FSunny.6 mph59%30.27 "Hg10 mi
6:20 pm63 °FPassing clouds.8 mph59%30.27 "HgN/A
5:50 pm64 °FSunny.7 mph56%30.24 "Hg10 mi
5:20 pm68 °FSunny.9 mph43%30.24 "Hg10 mi
4:50 pm68 °FSunny.5 mph43%30.24 "Hg10 mi
4:20 pm66 °FPassing clouds.7 mph46%30.24 "HgN/A
3:50 pm68 °FPassing clouds.7 mph43%30.24 "HgN/A
3:20 pm66 °FSunny.6 mph46%30.24 "Hg10 mi
2:50 pm64 °FPassing clouds.5 mph52%30.24 "HgN/A
2:20 pm66 °FSunny.5 mph52%30.24 "Hg10 mi
1:50 pm63 °FPassing clouds.3 mph56%30.24 "HgN/A
1:20 pm63 °FPassing clouds.5 mph56%30.24 "HgN/A
12:50 pm66 °FPassing clouds.5 mph46%30.24 "HgN/A
12:20 pm61 °FPassing clouds.6 mph59%30.24 "HgN/A
11:50 am63 °FScattered clouds.5 mph52%30.24 "HgN/A
11:20 am63 °FScattered clouds.6 mph56%30.24 "HgN/A
10:50 am61 °FScattered clouds.3 mph63%30.24 "HgN/A
10:20 am61 °FPassing clouds.5 mph63%30.21 "HgN/A
9:50 am61 °FScattered clouds.3 mph59%30.21 "HgN/A
9:20 am59 °FScattered clouds.No wind68%30.21 "HgN/A
8:50 am59 °FPassing clouds.No wind63%30.21 "HgN/A
8:20 am55 °FSunny.No wind77%30.21 "Hg10 mi
7:50 am54 °FSunny.No wind88%30.21 "Hg10 mi
7:20 am52 °FSunny.1 mph94%30.18 "Hg10 mi
6:50 am50 °FPassing clouds.2 mph94%30.18 "HgN/A
6:20 am48 °FScattered clouds.5 mph94%30.18 "HgN/A
5:50 am46 °FSunny.3 mph93%30.18 "HgN/A
5:20 am45 °FClear.3 mph93%30.15 "HgN/A
4:50 am46 °FPassing clouds.1 mph93%30.15 "HgN/A
4:20 am46 °FPassing clouds.3 mph100%30.15 "HgN/A
3:50 am48 °FPassing clouds.2 mph87%30.15 "HgN/A
3:20 am50 °FPassing clouds.2 mph88%30.15 "HgN/A
2:50 am52 °FPassing clouds.2 mph88%30.15 "HgN/A
2:20 am50 °FPassing clouds.3 mph88%30.15 "HgN/A
1:50 am50 °FPassing clouds.3 mph88%30.12 "HgN/A
1:20 am52 °FPassing clouds.2 mph88%30.12 "HgN/A
12:50 am52 °FPassing clouds.3 mph88%30.12 "HgN/A
12:20 am52 °FPassing clouds.2 mph88%30.09 "HgN/A
11:50 pm
Fri, Jul 10
54 °FPassing clouds.2 mph82%30.09 "HgN/A
11:20 pm55 °FOvercast.2 mph82%30.09 "HgN/A
10:50 pm57 °FOvercast.2 mph77%30.09 "HgN/A
10:20 pm55 °FPassing clouds.2 mph82%30.07 "HgN/A
9:50 pm55 °FPassing clouds.2 mph82%30.07 "HgN/A
9:20 pm59 °FSunny.1 mph77%30.07 "Hg10 mi
Weather by CustomWeather, © 2020

See weather overview